Flag for Norway Weather past 2 weeks in Fjerdingby, Norway

Now
53 °F

Cool.


Feels Like: 52 °F
Forecast: 38 / 47 °F
Wind: 3 mph from Southwest

Location: Oslo-Blindern


UV Index: 0 (Low)

Visibility: N/A


Pressure: 30.18 "Hg

Humidity: 43%

Dew point: 31 °F

Location of FjerdingbyLocation

Historic Weather in Fjerdingby

°F

Fjerdingby temperature yesterday

Maximum temperature yesterday: 52 °F (at 5:00 PM)
Minimum temperature yesterday: 38 °F (at 5:00 AM)
Average temperature yesterday: 46 °F

Past Weeks' High & Low Weather Summary

 TemperatureHumidityPressure
High56 °F (Apr 7, 6:00 PM)99% (Apr 6, 1:00 AM)30.33 "Hg (Apr 6, 1:00 AM)
Low30 °F (Apr 5, 6:00 AM)24% (Apr 14, 3:00 PM)29.32 "Hg (Apr 13, 6:00 AM)
Average42 °F71%29.86 "Hg
* Reported Apr 1 3:00 PM — Apr 16 3:00 PM, Fjerdingby, Weather by CustomWeather, © 2014

Note: Actual official high and low records may vary slightly from our data, if they occured in-between our weather recording intervals... More about our weather records

Advertising

Historic Weather Conditions — Data for Previous 24 hours

 ConditionsComfort  
Time TempWeatherWind HumidityBarometerVisibility
3:00 PM
Apr 16
51 °FCool.6 mph41%30.19 "HgN/A
2:00 PM51 °FOvercast.5 mph40%30.20 "Hg47 mi
1:00 PM49 °FCool.3 mph48%30.22 "HgN/A
12:00 PM46 °FCool.2 mph55%30.24 "HgN/A
11:00 AM42 °FOvercast.2 mph60%30.26 "Hg47 mi
10:00 AM40 °FQuite cool.2 mph64%30.27 "HgN/A
9:00 AM39 °FChilly.1 mph68%30.29 "HgN/A
8:00 AM37 °FChilly.1 mph63%30.30 "HgN/A
7:00 AM34 °FChilly.2 mph70%30.30 "HgN/A
6:00 AM31 °FChilly.1 mph78%30.31 "HgN/A
5:00 AM32 °FChilly.1 mph70%30.32 "HgN/A
4:00 AM33 °FChilly.1 mph71%30.33 "HgN/A
3:00 AM33 °FChilly.2 mph69%30.33 "HgN/A
2:00 AM33 °FPassing clouds.2 mph65%30.33 "Hg47 mi
11:00 PM
Apr 15
40 °FPassing clouds.3 mph44%30.31 "Hg47 mi
10:00 PM40 °FQuite cool.3 mph45%30.30 "HgN/A
9:00 PM43 °FQuite cool.5 mph39%30.29 "HgN/A
8:00 PM48 °FPassing clouds.3 mph26%30.27 "Hg47 mi
7:00 PM51 °FCool.3 mph25%30.25 "HgN/A
6:00 PM51 °FCool.5 mph24%30.24 "HgN/A
5:00 PM52 °FScattered clouds.5 mph26%30.23 "Hg47 mi
4:00 PM49 °FCool.7 mph28%30.23 "HgN/A
Weather by CustomWeather, © 2014

See weather overview